Regional Weather Roundup
Issued by NWS

Home | Current Version | Previous Version | Text Only | Print | Product List | Glossary On
Versions: 1 2 3 4 5 6 7 8 9 10 11 12 13 14 15 16 17 18 19 20 21 22 23 24 25 26 27 28 29 30 31 32 33 34 35 36 37 38 39 40 41 42 43 44 45 46 47 48 49
000
ASUS45 KBOU 261607
RWRCO

WEATHER ROUNDUP FOR COLORADO
NATIONAL WEATHER SERVICE DENVER/BOULDER CO
900 AM MST THU FEB 26 2015

NOTE: "FAIR" INDICATES FEW OR NO CLOUDS BELOW 12000 FEET WITH NO
SIGNIFICANT WEATHER AND/OR OBSTRUCTIONS TO VISIBILITY.

COZ001>005-013-030-031-261700-
...NORTHWEST COLORADO...

CITY           SKY/WX    TMP DP  RH WIND       PRES   REMARKS
CRAIG          MOSUNNY   19  13  77 E3        30.03F
HAYDEN         MOSUNNY   16  10  79 E9        30.01F WCI   4
MEEKER         PTSUNNY   20  11  68 CALM      30.01F
MOUNT WERNER   NOT AVBL
STEAMBOAT SPGS CLOUDY    12   7  77 CALM      30.00S
WALDEN         CLOUDY    12   9  85 CALM      29.96S
$$

COZ006>008-011-261700-
...WEST CENTRAL VALLEYS...

CITY           SKY/WX    TMP DP  RH WIND       PRES   REMARKS
GRAND JUNCTION MOSUNNY   31  21  66 SE12      30.05R WCI  22
MONTROSE       SUNNY     20  15  81 S5        30.06S WCI  13
EAGLE          MOSUNNY   18  16  93 CALM      30.06F
RIFLE          SUNNY     24  14  65 CALM      30.06S
DELTA          SUNNY     26  19  73 E5        30.07S WCI  21
NUCLA          SUNNY     27  18  69 CALM      30.06S
$$

COZ017>023-064>068-261700-
...SOUTHWEST COLORADO...

CITY           SKY/WX    TMP DP  RH WIND       PRES   REMARKS
DURANGO        MOSUNNY   20  17  88 NE3       30.01R
CORTEZ         SUNNY     26  21  81 SE5       30.02R WCI  20
PAGOSA SPRINGS PTSUNNY   22  22  99 CALM      30.01R
TELLURIDE      CLOUDY    16   9  71 SE5       30.00S WCI   9
WOLF CREEK PAS MOSUNNY   12  -4  48 SW6       29.96  WCI   3
$$

COZ009-010-012-014-032>034-037-058>063-261700-
...CENTRAL COLORADO...

CITY           SKY/WX    TMP DP  RH WIND       PRES   REMARKS
ASPEN          SUNNY     16   5  62 S6        29.96F WCI   7
BUENA VISTA    LGT SNOW  15  11  85 SE6       30.00F WCI   6
COPPER MTN     CLOUDY     5   0  78 W10       29.84S WCI -10
BERTHOUD PASS  CLOUDY    -2  -8  78 NW23      29.80S HAZE    WCI -26
COTTONWOOD PAS SNOW      14  10  85 CALM      29.93S VSB 1/4
GUNNISON       SUNNY      9   9 100 E5        30.03S WCI   0
KREMMLING      LGT SNOW  12   5  73 CALM      30.02S
LEADVILLE      SUNNY     12   0  58 N6        29.89F WCI   3
MONARCH PASS     N/A      3   0  85 MISG      29.95R
SALIDA         CLOUDY    19  11  71 SE8G16    30.10S WCI   8
SUNLIGHT       CLOUDY    12   9  85 CALM        N/A
WILKERSON PASS LGT SNOW N/A N/A N/A SW6       29.88S VSB 1
$$

COZ069>075-261700-
...SAN LUIS VALLEY/SANGRE DE CRISTO MOUNTAINS...

CITY           SKY/WX    TMP DP  RH WIND       PRES   REMARKS
ALAMOSA        MOSUNNY   16  10  77 CALM      30.01S
LA VETA PASS   LGT SNOW  18  14  86 MISG      29.92R
SAGUACHE       NOT AVBL
$$

COZ035-036-038>040-261700-
...NORTHERN COLORADO FRONT RANGE...

CITY           SKY/WX    TMP DP  RH WIND       PRES   REMARKS
DENVER INTL AP FLURRIES  12   7  80 E7        30.16S WCI   1
DMNS CITY PARK   N/A     14  11  87 E8        30.17F WCI   2
AURORA         PTSUNNY   10   8  91 SE8       30.15S WCI  -2
FRONT RANGE AP CLOUDY    16   9  73 SE5       30.16  WCI   9
ERIE MUNI ARPT CLOUDY    15  10  80 SE8       30.19S WCI   4
BOULDER MUN AP LGT SNOW  18  12  79 E3        30.17S
CENTENNIAL     PTSUNNY   11   6  81 E7        30.13S WCI   0
BROOMFIELD     LGT SNOW  12   9  85 E8        30.15S WCI   1
FORT COLLINS   MOSUNNY   14   9  79 SE8       30.20S WCI   3
LONGMONT       LGT SNOW  20  12  72 CALM      30.21S
$$

COZ041-046-047-076>085-087-088-261700-
...PIKES PEAK/PALMER DIVIDE AND SOUTHERN FOOTHILLS...

CITY           SKY/WX    TMP DP  RH WIND       PRES   REMARKS
COLO. SPRINGS  LGT SNOW  13  11  92 SE14      30.13R VSB 1   WCI  -2
A. F. ACADEMY  LGT SNOW  14   9  79 S12       30.08S WCI   0
ELLICOTT       NOT AVBL
FALCON         LGT SNOW  15   8  74 SE5       30.09S WCI   7
FORT CARSON    LGT SNOW  14  11  88 S17       30.12S VSB 1   WCI  -3
LIMON          LGT SNOW  12   9  87 E3        30.18R VSB 3/4
MONUMENT HILL  LGT SNOW  10   5  79 SE7       30.04F WCI   0
TRINIDAD       CLOUDY    16  12  84 NE8       30.14S WCI   5
$$

COZ042>045-048>051-090-091-261700-
...NORTHEAST COLORADO...

CITY           SKY/WX    TMP DP  RH WIND       PRES   REMARKS
GREELEY ARPT   CLOUDY    16   5  62 E9        30.20F WCI   4
AKRON          CLOUDY    11   7  84 E7        30.23R WCI   0
BURLINGTON     CLOUDY    15   8  73 NE12      30.26S HAZE    WCI   2
WRAY           CLOUDY    15   5  65 NE8       30.32F WCI   4
STERLING       CLOUDY    14   9  79 CALM      30.29R
HOLYOKE        NOT AVBL
FORT MORGAN    FLURRIES  14   8  78 E6        30.25R WCI   5
$$

COZ086-089-092>099-261700-
...SOUTHEAST COLORADO...

CITY           SKY/WX    TMP DP  RH WIND       PRES   REMARKS
PUEBLO         LGT SNOW  16  13  88 SE8       30.23R FOG     WCI   5
LA JUNTA       LGT SNOW  17  12  80 SE12      30.27R WCI   4
LAMAR          LGT SNOW  18  10  71 E6        30.29R WCI  10
SPRINGFIELD      N/A     17  11  77 NE7       30.25S WCI   8
$$



USA.gov is the U.S. government's official web portal to all federal, state and local government web resources and services.